| time (UTC) | temp C | wind direction | speed KPH | gust KPH | rain 1hr cm | rain 24hr cm | rain mn cm | humidity % | barometer mb |
| 20260508023807 | 5 | 338 | 6.4 | 14.5 | 0.00 | 0.00 | 0.00 | 92 | 1016.0 |
| 20260508023407 | 5 | 329 | 8.0 | 14.5 | 0.00 | 0.00 | 0.00 | 92 | 1016.0 |
| 20260508023207 | 5 | 339 | 6.4 | 11.3 | 0.00 | 0.00 | 0.00 | 92 | 1016.0 |
| 20260508023008 | 5 | 353 | 6.4 | 11.3 | 0.00 | 0.00 | 0.00 | 92 | 1016.0 |
| 20260508022807 | 5 | 350 | 4.8 | 11.3 | 0.00 | 0.00 | 0.00 | 92 | 1016.0 |
| 20260508022607 | 5 | 356 | 4.8 | 11.3 | 0.00 | 0.00 | 0.00 | 92 | 1016.0 |
| 20260508022409 | 5 | 355 | 6.4 | 11.3 | 0.00 | 0.00 | 0.00 | 92 | 1016.0 |
| 20260508022208 | 5 | 357 | 8.0 | 14.5 | 0.00 | 0.00 | 0.00 | 92 | 1016.0 |
| 20260508021807 | 5 | 353 | 4.8 | 14.5 | 0.00 | 0.00 | 0.00 | 92 | 1016.0 |
| 20260508021607 | 5 | 351 | 8.0 | 16.1 | 0.00 | 0.00 | 0.00 | 92 | 1016.0 |
| 20260508021408 | 5 | 354 | 8.0 | 16.1 | 0.00 | 0.00 | 0.00 | 92 | 1016.0 |
| 20260508021208 | 5 | 349 | 8.0 | 16.1 | 0.00 | 0.00 | 0.00 | 92 | 1016.0 |
| 20260508021007 | 5 | 349 | 6.4 | 16.1 | 0.00 | 0.00 | 0.00 | 92 | 1016.0 |
| 20260508020807 | 5 | 349 | 6.4 | 16.1 | 0.00 | 0.00 | 0.00 | 92 | 1016.0 |
| 20260508020608 | 5 | 348 | 6.4 | 12.9 | 0.00 | 0.00 | 0.00 | 92 | 1016.0 |
| 20260508020408 | 5 | 345 | 8.0 | 12.9 | 0.00 | 0.00 | 0.00 | 91 | 1016.0 |
| 20260508020207 | 5 | 347 | 9.7 | 12.9 | 0.00 | 0.00 | 0.00 | 91 | 1016.0 |
| 20260508020007 | 5 | 348 | 9.7 | 12.9 | 0.00 | 0.00 | 0.00 | 91 | 1016.0 |
| 20260508015808 | 5 | 352 | 4.8 | 11.3 | 0.00 | 0.00 | 0.00 | 91 | 1016.0 |
| 20260508015607 | 5 | 356 | 6.4 | 11.3 | 0.00 | 0.00 | 0.00 | 91 | 1016.0 |
| 20260508015407 | 5 | 354 | 8.0 | 11.3 | 0.00 | 0.00 | 0.00 | 91 | 1016.0 |
| 20260508015208 | 5 | 353 | 8.0 | 11.3 | 0.00 | 0.00 | 0.00 | 91 | 1016.0 |
| 20260508015007 | 5 | 352 | 8.0 | 11.3 | 0.00 | 0.00 | 0.00 | 91 | 1016.0 |
| 20260508014808 | 5 | 348 | 9.7 | 12.9 | 0.00 | 0.00 | 0.00 | 91 | 1016.0 |
| 20260508014408 | 5 | 346 | 8.0 | 16.1 | 0.00 | 0.00 | 0.00 | 91 | 1016.0 |
| 20260508014008 | 5 | 337 | 9.7 | 16.1 | 0.00 | 0.00 | 0.00 | 91 | 1016.0 |
| 20260508013807 | 5 | 340 | 9.7 | 16.1 | 0.00 | 0.00 | 0.00 | 91 | 1016.0 |
| 20260508013607 | 5 | 336 | 4.8 | 11.3 | 0.00 | 0.00 | 0.00 | 91 | 1016.0 |
| 20260508013408 | 5 | 333 | 4.8 | 11.3 | 0.00 | 0.00 | 0.00 | 91 | 1016.0 |
| 20260508013208 | 5 | 341 | 6.4 | 11.3 | 0.00 | 0.00 | 0.00 | 91 | 1016.0 |
| 20260508013008 | 5 | 342 | 6.4 | 11.3 | 0.00 | 0.00 | 0.00 | 91 | 1016.0 |
| 20260508012807 | 5 | 342 | 4.8 | 11.3 | 0.00 | 0.00 | 0.00 | 91 | 1015.0 |
| 20260508012610 | 5 | 345 | 8.0 | 12.9 | 0.00 | 0.00 | 0.00 | 91 | 1015.0 |
| 20260508012408 | 5 | 346 | 6.4 | 12.9 | 0.00 | 0.00 | 0.00 | 91 | 1015.0 |
| 20260508012207 | 5 | 347 | 6.4 | 12.9 | 0.00 | 0.00 | 0.00 | 91 | 1015.0 |
| 20260508012008 | 5 | 345 | 8.0 | 12.9 | 0.00 | 0.00 | 0.00 | 91 | 1015.0 |
| 20260508011807 | 5 | 343 | 6.4 | 12.9 | 0.00 | 0.00 | 0.00 | 91 | 1015.0 |
| 20260508011607 | 5 | 339 | 4.8 | 12.9 | 0.00 | 0.00 | 0.00 | 91 | 1015.0 |
| 20260508011408 | 5 | 344 | 9.7 | 12.9 | 0.00 | 0.00 | 0.00 | 91 | 1016.0 |
| 20260508011208 | 5 | 340 | 4.8 | 11.3 | 0.00 | 0.00 | 0.00 | 91 | 1016.0 |
| 20260508011007 | 5 | 347 | 8.0 | 11.3 | 0.00 | 0.00 | 0.00 | 91 | 1016.0 |
| 20260508010607 | 5 | 353 | 6.4 | 11.3 | 0.00 | 0.00 | 0.00 | 91 | 1016.0 |
| 20260508010408 | 5 | 351 | 6.4 | 11.3 | 0.00 | 0.00 | 0.00 | 91 | 1016.0 |
| 20260508010207 | 5 | 353 | 8.0 | 11.3 | 0.00 | 0.00 | 0.00 | 91 | 1016.0 |
| 20260508010007 | 5 | 354 | 9.7 | 14.5 | 0.00 | 0.00 | 0.00 | 91 | 1016.0 |
| 20260508005808 | 5 | 352 | 6.4 | 14.5 | 0.00 | 0.00 | 0.00 | 91 | 1015.0 |
| 20260508005608 | 5 | 347 | 9.7 | 16.1 | 0.00 | 0.00 | 0.00 | 91 | 1015.0 |
| 20260508005407 | 5 | 349 | 8.0 | 16.1 | 0.00 | 0.00 | 0.00 | 91 | 1015.0 |
| 20260508005208 | 5 | 347 | 9.7 | 16.1 | 0.00 | 0.00 | 0.00 | 91 | 1015.0 |
| 20260508004607 | 5 | 347 | 4.8 | 11.3 | 0.00 | 0.00 | 0.00 | 91 | 1015.0 |
| 20260508003608 | 5 | 335 | 9.7 | 12.9 | 0.00 | 0.00 | 0.00 | 91 | 1015.0 |
| 20260508003407 | 5 | 332 | 6.4 | 12.9 | 0.00 | 0.00 | 0.00 | 91 | 1015.0 |
| 20260508003208 | 5 | 323 | 8.0 | 12.9 | 0.00 | 0.00 | 0.00 | 91 | 1015.0 |
| 20260508003007 | 5 | 338 | 6.4 | 12.9 | 0.00 | 0.00 | 0.00 | 91 | 1015.0 |
| 20260508002407 | 5 | 346 | 4.8 | 12.9 | 0.00 | 0.00 | 0.00 | 91 | 1016.0 |
| 20260508001807 | 5 | 341 | 4.8 | 12.9 | 0.00 | 0.00 | 0.00 | 91 | 1016.0 |
| 20260508001608 | 5 | 343 | 8.0 | 11.3 | 0.00 | 0.00 | 0.00 | 91 | 1016.0 |
| 20260508001208 | 5 | 331 | 6.4 | 11.3 | 0.00 | 0.00 | 0.00 | 91 | 1016.0 |
| 20260508001008 | 5 | 328 | 6.4 | 11.3 | 0.00 | 0.00 | 0.00 | 91 | 1016.0 |
| 20260508000607 | 5 | 319 | 8.0 | 11.3 | 0.00 | 0.00 | 0.00 | 91 | 1016.0 |
| 20260508000407 | 5 | 323 | 4.8 | 11.3 | 0.00 | 0.00 | 0.00 | 91 | 1016.0 |
| 20260508000209 | 5 | 329 | 6.4 | 12.9 | 0.00 | 0.00 | 0.00 | 91 | 1016.0 |
| 20260508000007 | 5 | 326 | 6.4 | 12.9 | 0.00 | 0.00 | 0.00 | 91 | 1016.0 |
| 20260507235807 | 5 | 323 | 4.8 | 12.9 | 0.00 | 0.00 | 0.00 | 91 | 1016.0 |
| 20260507235608 | 5 | 324 | 6.4 | 12.9 | 0.00 | 0.00 | 0.00 | 91 | 1016.0 |
| 20260507235407 | 5 | 326 | 6.4 | 12.9 | 0.00 | 0.00 | 0.00 | 91 | 1016.0 |
| 20260507235207 | 5 | 320 | 6.4 | 9.7 | 0.00 | 0.00 | 0.00 | 91 | 1016.0 |
| 20260507235008 | 5 | 327 | 4.8 | 9.7 | 0.00 | 0.00 | 0.00 | 91 | 1016.0 |
| 20260507234607 | 5 | 325 | 6.4 | 11.3 | 0.00 | 0.00 | 0.00 | 91 | 1016.0 |
| 20260507234408 | 5 | 318 | 6.4 | 11.3 | 0.00 | 0.00 | 0.00 | 91 | 1016.0 |
| 20260507234209 | 5 | 320 | 6.4 | 11.3 | 0.00 | 0.00 | 0.00 | 91 | 1016.0 |
| 20260507234008 | 5 | 312 | 4.8 | 11.3 | 0.00 | 0.00 | 0.00 | 91 | 1016.0 |
| 20260507233207 | 5 | 311 | 4.8 | 11.3 | 0.00 | 0.00 | 0.00 | 91 | 1016.0 |
| 20260507233008 | 5 | 327 | 8.0 | 11.3 | 0.00 | 0.00 | 0.00 | 91 | 1016.0 |
| 20260507232612 | 5 | 317 | 4.8 | 11.3 | 0.00 | 0.00 | 0.00 | 91 | 1016.0 |
| 20260507232208 | 5 | 315 | 6.4 | 11.3 | 0.00 | 0.00 | 0.00 | 91 | 1016.0 |
| 20260507232008 | 5 | 307 | 4.8 | 9.7 | 0.00 | 0.00 | 0.00 | 91 | 1016.0 |
| 20260507231807 | 5 | 319 | 4.8 | 11.3 | 0.00 | 0.00 | 0.00 | 91 | 1016.0 |
| 20260507231608 | 5 | 319 | 4.8 | 11.3 | 0.00 | 0.00 | 0.00 | 91 | 1016.0 |
| 20260507231408 | 5 | 317 | 4.8 | 11.3 | 0.00 | 0.00 | 0.00 | 91 | 1016.0 |
| 20260507231209 | 5 | 315 | 4.8 | 11.3 | 0.00 | 0.00 | 0.00 | 91 | 1016.0 |
| 20260507231008 | 5 | 308 | 6.4 | 11.3 | 0.00 | 0.00 | 0.00 | 91 | 1016.0 |
| 20260507230607 | 5 | 303 | 6.4 | 11.3 | 0.00 | 0.00 | 0.00 | 91 | 1016.0 |
| 20260507230408 | 6 | 298 | 6.4 | 11.3 | 0.00 | 0.00 | 0.00 | 91 | 1016.0 |
| 20260507230208 | 5 | 300 | 4.8 | 11.3 | 0.00 | 0.00 | 0.00 | 91 | 1016.0 |
| 20260507230007 | 5 | 311 | 0.0 | 11.3 | 0.00 | 0.00 | 0.00 | 91 | 1016.0 |
| 20260507225808 | 6 | 309 | 6.4 | 9.7 | 0.00 | 0.00 | 0.00 | 91 | 1016.0 |
| 20260507225608 | 6 | 303 | 6.4 | 8.0 | 0.00 | 0.00 | 0.00 | 91 | 1016.0 |
| 20260507225408 | 6 | 321 | 0.0 | 9.7 | 0.00 | 0.00 | 0.00 | 91 | 1016.0 |
| 20260507225208 | 6 | 336 | 4.8 | 9.7 | 0.00 | 0.00 | 0.00 | 91 | 1016.0 |
| 20260507224808 | 6 | 335 | 4.8 | 9.7 | 0.00 | 0.00 | 0.00 | 91 | 1016.0 |
| 20260507224608 | 6 | 329 | 4.8 | 9.7 | 0.00 | 0.00 | 0.00 | 91 | 1016.0 |
| 20260507224407 | 6 | 331 | 4.8 | 8.0 | 0.00 | 0.00 | 0.00 | 91 | 1016.0 |
| 20260507224208 | 6 | 324 | 4.8 | 11.3 | 0.00 | 0.00 | 0.00 | 91 | 1016.0 |
| 20260507224008 | 6 | 317 | 0.0 | 11.3 | 0.00 | 0.00 | 0.00 | 91 | 1016.0 |
| 20260507223610 | 6 | 320 | 0.0 | 11.3 | 0.00 | 0.00 | 0.00 | 91 | 1016.0 |
| 20260507223407 | 6 | 318 | 6.4 | 11.3 | 0.00 | 0.00 | 0.00 | 91 | 1016.0 |
| 20260507223208 | 6 | 316 | 0.0 | 8.0 | 0.00 | 0.00 | 0.00 | 91 | 1016.0 |
| 20260507223007 | 6 | 320 | 0.0 | 8.0 | 0.00 | 0.00 | 0.00 | 91 | 1016.0 |
| 20260507222808 | 6 | 326 | 0.0 | 8.0 | 0.00 | 0.00 | 0.00 | 91 | 1016.0 |
| 20260507222608 | 6 | 319 | 6.4 | 9.7 | 0.00 | 0.00 | 0.00 | 91 | 1016.0 |
| 20260507222407 | 6 | 319 | 4.8 | 9.7 | 0.00 | 0.00 | 0.00 | 91 | 1016.0 |
| 20260507222209 | 6 | 311 | 0.0 | 9.7 | 0.00 | 0.00 | 0.00 | 91 | 1016.0 |
| 20260507222007 | 6 | 315 | 0.0 | 9.7 | 0.00 | 0.00 | 0.00 | 91 | 1016.0 |
| 20260507221807 | 6 | 316 | 0.0 | 9.7 | 0.00 | 0.00 | 0.00 | 91 | 1016.0 |
| 20260507221607 | 6 | 328 | 0.0 | 9.7 | 0.00 | 0.00 | 0.00 | 91 | 1016.0 |
| 20260507221408 | 6 | 317 | 0.0 | 9.7 | 0.00 | 0.00 | 0.00 | 91 | 1016.0 |
| 20260507221207 | 6 | 326 | 0.0 | 11.3 | 0.00 | 0.00 | 0.00 | 91 | 1016.0 |
| 20260507221007 | 6 | 326 | 0.0 | 11.3 | 0.00 | 0.00 | 0.00 | 91 | 1016.0 |
| 20260507220808 | 6 | 317 | 0.0 | 11.3 | 0.00 | 0.00 | 0.00 | 91 | 1016.0 |
| 20260507220608 | 6 | 321 | 4.8 | 11.3 | 0.00 | 0.00 | 0.00 | 91 | 1016.0 |
| 20260507220408 | 6 | 324 | 6.4 | 11.3 | 0.00 | 0.00 | 0.00 | 91 | 1016.0 |
| 20260507220207 | 6 | 322 | 6.4 | 11.3 | 0.00 | 0.00 | 0.00 | 91 | 1016.0 |
| 20260507220008 | 6 | 323 | 0.0 | 11.3 | 0.00 | 0.00 | 0.00 | 91 | 1016.0 |
| 20260507215807 | 6 | 340 | 6.4 | 11.3 | 0.00 | 0.00 | 0.00 | 91 | 1016.0 |
| 20260507215608 | 6 | 346 | 0.0 | 9.7 | 0.00 | 0.00 | 0.00 | 91 | 1016.0 |
| 20260507215208 | 5 | 347 | 4.8 | 8.0 | 0.00 | 0.00 | 0.00 | 91 | 1016.0 |
| 20260507215007 | 6 | 344 | 6.4 | 11.3 | 0.00 | 0.00 | 0.00 | 91 | 1016.0 |
| 20260507214807 | 6 | 325 | 0.0 | 11.3 | 0.00 | 0.00 | 0.00 | 91 | 1016.0 |
| 20260507214608 | 6 | 330 | 4.8 | 11.3 | 0.00 | 0.00 | 0.00 | 91 | 1016.0 |
| 20260507214408 | 6 | 334 | 0.0 | 11.3 | 0.00 | 0.00 | 0.00 | 91 | 1015.0 |
| 20260507214207 | 6 | 336 | 6.4 | 11.3 | 0.00 | 0.00 | 0.00 | 91 | 1015.0 |
| 20260507214007 | 6 | 322 | 4.8 | 9.7 | 0.00 | 0.00 | 0.00 | 91 | 1015.0 |
| 20260507213808 | 6 | 326 | 4.8 | 9.7 | 0.00 | 0.00 | 0.00 | 91 | 1015.0 |
| 20260507213608 | 6 | 314 | 4.8 | 11.3 | 0.00 | 0.00 | 0.00 | 91 | 1015.0 |
| 20260507213408 | 6 | 327 | 0.0 | 11.3 | 0.00 | 0.00 | 0.00 | 91 | 1015.0 |
| 20260507213209 | 6 | 334 | 0.0 | 11.3 | 0.00 | 0.00 | 0.00 | 91 | 1015.0 |
| 20260507213007 | 6 | 334 | 0.0 | 11.3 | 0.00 | 0.00 | 0.00 | 90 | 1015.0 |
| 20260507212608 | 6 | 334 | 6.4 | 12.9 | 0.00 | 0.00 | 0.00 | 90 | 1015.0 |
| 20260507212408 | 6 | 328 | 6.4 | 12.9 | 0.00 | 0.00 | 0.00 | 90 | 1015.0 |
| 20260507212207 | 6 | 329 | 6.4 | 12.9 | 0.00 | 0.00 | 0.00 | 90 | 1015.0 |
| 20260507211808 | 6 | 335 | 9.7 | 12.9 | 0.00 | 0.00 | 0.00 | 90 | 1015.0 |
| 20260507211607 | 5 | 338 | 4.8 | 14.5 | 0.00 | 0.00 | 0.00 | 90 | 1015.0 |
| 20260507211408 | 6 | 340 | 6.4 | 14.5 | 0.00 | 0.00 | 0.00 | 90 | 1015.0 |
| 20260507211209 | 6 | 339 | 4.8 | 14.5 | 0.00 | 0.00 | 0.00 | 90 | 1015.0 |
| 20260507211007 | 6 | 337 | 6.4 | 14.5 | 0.00 | 0.00 | 0.00 | 90 | 1015.0 |
| 20260507210808 | 5 | 334 | 9.7 | 14.5 | 0.00 | 0.00 | 0.00 | 90 | 1015.0 |
| 20260507210608 | 6 | 332 | 4.8 | 12.9 | 0.00 | 0.00 | 0.00 | 90 | 1015.0 |
| 20260507210407 | 6 | 331 | 8.0 | 12.9 | 0.00 | 0.00 | 0.00 | 90 | 1015.0 |
| 20260507210208 | 6 | 329 | 6.4 | 11.3 | 0.00 | 0.00 | 0.00 | 90 | 1015.0 |
| 20260507210009 | 6 | 334 | 0.0 | 11.3 | 0.00 | 0.00 | 0.00 | 90 | 1015.0 |
| 20260507205807 | 6 | 336 | 6.4 | 11.3 | 0.00 | 0.00 | 0.00 | 90 | 1015.0 |
| 20260507205607 | 6 | 337 | 6.4 | 11.3 | 0.00 | 0.00 | 0.00 | 90 | 1015.0 |
| 20260507205409 | 6 | 333 | 6.4 | 11.3 | 0.00 | 0.00 | 0.00 | 90 | 1015.0 |
| 20260507205208 | 6 | 333 | 0.0 | 11.3 | 0.00 | 0.00 | 0.00 | 90 | 1015.0 |
| 20260507205008 | 6 | 328 | 6.4 | 11.3 | 0.00 | 0.00 | 0.00 | 90 | 1015.0 |
| 20260507204809 | 6 | 321 | 6.4 | 11.3 | 0.00 | 0.00 | 0.00 | 90 | 1015.0 |
| 20260507204608 | 6 | 313 | 8.0 | 11.3 | 0.00 | 0.00 | 0.00 | 90 | 1015.0 |
| 20260507204407 | 6 | 319 | 4.8 | 11.3 | 0.00 | 0.00 | 0.00 | 90 | 1015.0 |
| 20260507204207 | 6 | 315 | 4.8 | 11.3 | 0.00 | 0.00 | 0.00 | 90 | 1015.0 |
| 20260507204008 | 6 | 324 | 0.0 | 11.3 | 0.00 | 0.00 | 0.00 | 90 | 1015.0 |
| 20260507203808 | 6 | 325 | 6.4 | 11.3 | 0.00 | 0.00 | 0.00 | 90 | 1015.0 |
| 20260507203607 | 6 | 325 | 4.8 | 11.3 | 0.00 | 0.00 | 0.00 | 90 | 1015.0 |
| 20260507203407 | 6 | 324 | 6.4 | 11.3 | 0.00 | 0.00 | 0.00 | 90 | 1015.0 |
| 20260507202809 | 6 | 317 | 6.4 | 11.3 | 0.00 | 0.00 | 0.00 | 90 | 1015.0 |
| 20260507202607 | 6 | 311 | 6.4 | 11.3 | 0.00 | 0.00 | 0.00 | 90 | 1015.0 |
| 20260507202407 | 6 | 300 | 6.4 | 11.3 | 0.00 | 0.00 | 0.00 | 90 | 1015.0 |
| 20260507202208 | 6 | 290 | 4.8 | 11.3 | 0.00 | 0.00 | 0.00 | 90 | 1015.0 |
| 20260507202008 | 6 | 294 | 8.0 | 11.3 | 0.00 | 0.00 | 0.00 | 90 | 1015.0 |
| 20260507201808 | 6 | 275 | 4.8 | 9.7 | 0.00 | 0.00 | 0.00 | 90 | 1015.0 |
| 20260507201608 | 6 | 284 | 6.4 | 9.7 | 0.00 | 0.00 | 0.00 | 90 | 1015.0 |
| 20260507201408 | 6 | 282 | 4.8 | 9.7 | 0.00 | 0.00 | 0.00 | 90 | 1015.0 |
| 20260507201208 | 6 | 304 | 6.4 | 9.7 | 0.00 | 0.00 | 0.00 | 90 | 1015.0 |
| 20260507200607 | 6 | 306 | 0.0 | 9.7 | 0.00 | 0.00 | 0.00 | 90 | 1015.0 |
| 20260507200407 | 6 | 307 | 6.4 | 9.7 | 0.00 | 0.00 | 0.00 | 90 | 1015.0 |
| 20260507200208 | 6 | 299 | 0.0 | 6.4 | 0.00 | 0.00 | 0.00 | 90 | 1015.0 |
| 20260507200008 | 6 | 296 | 0.0 | 8.0 | 0.00 | 0.00 | 0.00 | 90 | 1015.0 |
| 20260507195807 | 6 | 307 | 4.8 | 8.0 | 0.00 | 0.00 | 0.00 | 90 | 1015.0 |
| 20260507195608 | 6 | 311 | 4.8 | 8.0 | 0.00 | 0.00 | 0.00 | 90 | 1015.0 |
| 20260507195408 | 6 | 313 | 4.8 | 9.7 | 0.00 | 0.00 | 0.00 | 90 | 1015.0 |
| 20260507195208 | 6 | 323 | 4.8 | 11.3 | 0.00 | 0.00 | 0.00 | 90 | 1015.0 |
| 20260507195007 | 6 | 332 | 6.4 | 11.3 | 0.00 | 0.00 | 0.00 | 90 | 1015.0 |
| 20260507194808 | 6 | 330 | 4.8 | 11.3 | 0.00 | 0.00 | 0.00 | 90 | 1015.0 |
| 20260507194407 | 6 | 335 | 0.0 | 11.3 | 0.00 | 0.00 | 0.00 | 90 | 1015.0 |
| 20260507194207 | 6 | 328 | 4.8 | 11.3 | 0.00 | 0.00 | 0.00 | 90 | 1015.0 |
| 20260507194008 | 6 | 323 | 4.8 | 11.3 | 0.00 | 0.00 | 0.00 | 90 | 1015.0 |
| 20260507193808 | 6 | 318 | 8.0 | 11.3 | 0.00 | 0.00 | 0.00 | 90 | 1015.0 |
| 20260507193609 | 6 | 313 | 0.0 | 11.3 | 0.00 | 0.00 | 0.00 | 90 | 1015.0 |
| 20260507193408 | 6 | 313 | 0.0 | 11.3 | 0.00 | 0.00 | 0.00 | 90 | 1015.0 |
| 20260507193208 | 6 | 329 | 4.8 | 11.3 | 0.00 | 0.00 | 0.00 | 90 | 1015.0 |
| 20260507193007 | 6 | 341 | 0.0 | 11.3 | 0.00 | 0.00 | 0.00 | 90 | 1015.0 |
| 20260507192808 | 6 | 335 | 6.4 | 11.3 | 0.00 | 0.00 | 0.00 | 90 | 1014.0 |
| 20260507192607 | 6 | 331 | 0.0 | 11.3 | 0.00 | 0.00 | 0.00 | 90 | 1014.0 |
| 20260507192408 | 6 | 332 | 6.4 | 11.3 | 0.00 | 0.00 | 0.00 | 90 | 1014.0 |
| 20260507192213 | 6 | 332 | 6.4 | 11.3 | 0.00 | 0.00 | 0.00 | 90 | 1014.0 |
| 20260507192007 | 6 | 334 | 6.4 | 11.3 | 0.00 | 0.00 | 0.00 | 90 | 1014.0 |
| 20260507191808 | 6 | 340 | 4.8 | 11.3 | 0.00 | 0.00 | 0.00 | 90 | 1014.0 |
| 20260507191608 | 6 | 332 | 0.0 | 11.3 | 0.00 | 0.00 | 0.00 | 90 | 1014.0 |
| 20260507191407 | 6 | 336 | 6.4 | 11.3 | 0.00 | 0.00 | 0.00 | 90 | 1014.0 |
| 20260507190808 | 6 | 318 | 0.0 | 11.3 | 0.00 | 0.00 | 0.00 | 90 | 1014.0 |
| 20260507190607 | 6 | 325 | 4.8 | 11.3 | 0.00 | 0.00 | 0.00 | 90 | 1014.0 |
| 20260507190407 | 6 | 327 | 0.0 | 11.3 | 0.00 | 0.00 | 0.00 | 89 | 1014.0 |
| 20260507190208 | 6 | 327 | 4.8 | 11.3 | 0.00 | 0.00 | 0.00 | 89 | 1014.0 |
| 20260507190009 | 6 | 333 | 8.0 | 11.3 | 0.00 | 0.00 | 0.00 | 89 | 1014.0 |
| 20260507185808 | 6 | 334 | 6.4 | 9.7 | 0.00 | 0.00 | 0.00 | 89 | 1014.0 |
| 20260507185610 | 6 | 330 | 4.8 | 9.7 | 0.00 | 0.00 | 0.00 | 89 | 1014.0 |
| 20260507185208 | 6 | 312 | 6.4 | 9.7 | 0.00 | 0.00 | 0.00 | 89 | 1014.0 |
| 20260507185007 | 6 | 322 | 0.0 | 12.9 | 0.00 | 0.00 | 0.00 | 89 | 1014.0 |
| 20260507184809 | 6 | 316 | 4.8 | 12.9 | 0.00 | 0.00 | 0.00 | 89 | 1014.0 |
| 20260507184609 | 6 | 330 | 0.0 | 12.9 | 0.00 | 0.00 | 0.00 | 89 | 1014.0 |
| 20260507184408 | 6 | 330 | 0.0 | 12.9 | 0.00 | 0.00 | 0.00 | 89 | 1014.0 |
| 20260507184207 | 6 | 339 | 6.4 | 12.9 | 0.00 | 0.00 | 0.00 | 89 | 1014.0 |
| 20260507184008 | 6 | 339 | 4.8 | 12.9 | 0.00 | 0.00 | 0.00 | 89 | 1014.0 |
| 20260507183808 | 6 | 342 | 6.4 | 12.9 | 0.00 | 0.00 | 0.00 | 89 | 1014.0 |
| 20260507183607 | 6 | 326 | 0.0 | 11.3 | 0.00 | 0.00 | 0.00 | 89 | 1014.0 |
| 20260507183408 | 6 | 344 | 4.8 | 11.3 | 0.00 | 0.00 | 0.00 | 89 | 1014.0 |
| 20260507183208 | 6 | 339 | 0.0 | 11.3 | 0.00 | 0.00 | 0.00 | 89 | 1014.0 |
| 20260507183008 | 6 | 343 | 4.8 | 12.9 | 0.00 | 0.00 | 0.00 | 89 | 1014.0 |
| 20260507182608 | 6 | 340 | 6.4 | 12.9 | 0.00 | 0.00 | 0.00 | 89 | 1014.0 |
| 20260507182409 | 6 | 332 | 4.8 | 12.9 | 0.00 | 0.00 | 0.00 | 89 | 1014.0 |
| 20260507182208 | 6 | 329 | 8.0 | 12.9 | 0.00 | 0.00 | 0.00 | 89 | 1014.0 |
| 20260507182008 | 6 | 334 | 6.4 | 12.9 | 0.00 | 0.00 | 0.00 | 89 | 1014.0 |
| 20260507181807 | 6 | 339 | 6.4 | 12.9 | 0.00 | 0.00 | 0.00 | 89 | 1014.0 |
| 20260507181408 | 6 | 325 | 6.4 | 11.3 | 0.00 | 0.00 | 0.00 | 89 | 1014.0 |
| 20260507181208 | 6 | 328 | 6.4 | 12.9 | 0.00 | 0.00 | 0.00 | 89 | 1014.0 |
| 20260507181007 | 6 | 318 | 0.0 | 12.9 | 0.00 | 0.00 | 0.00 | 89 | 1014.0 |
| 20260507180808 | 6 | 319 | 4.8 | 12.9 | 0.00 | 0.00 | 0.00 | 89 | 1014.0 |
| 20260507180607 | 6 | 325 | 8.0 | 12.9 | 0.00 | 0.00 | 0.00 | 89 | 1014.0 |
| 20260507180408 | 6 | 335 | 9.7 | 12.9 | 0.00 | 0.00 | 0.00 | 89 | 1014.0 |
| 20260507180208 | 6 | 337 | 6.4 | 12.9 | 0.00 | 0.00 | 0.00 | 89 | 1014.0 |
| 20260507180008 | 6 | 334 | 6.4 | 11.3 | 0.00 | 0.00 | 0.00 | 89 | 1014.0 |
| 20260507175808 | 6 | 332 | 0.0 | 11.3 | 0.00 | 0.00 | 0.00 | 88 | 1013.0 |
| 20260507175607 | 6 | 329 | 4.8 | 11.3 | 0.00 | 0.00 | 0.00 | 88 | 1013.0 |
| 20260507175408 | 6 | 332 | 0.0 | 11.3 | 0.00 | 0.00 | 0.00 | 88 | 1013.0 |
| 20260507175209 | 6 | 330 | 0.0 | 9.7 | 0.00 | 0.00 | 0.00 | 88 | 1013.0 |
| 20260507175008 | 6 | 339 | 6.4 | 11.3 | 0.00 | 0.00 | 0.00 | 88 | 1013.0 |
| 20260507174807 | 6 | 339 | 6.4 | 11.3 | 0.00 | 0.00 | 0.00 | 88 | 1013.0 |
| 20260507174608 | 6 | 340 | 6.4 | 11.3 | 0.00 | 0.00 | 0.00 | 88 | 1013.0 |
| 20260507174408 | 6 | 334 | 6.4 | 11.3 | 0.00 | 0.00 | 0.00 | 88 | 1013.0 |
| 20260507174208 | 6 | 338 | 6.4 | 12.9 | 0.00 | 0.00 | 0.00 | 88 | 1013.0 |
| 20260507173808 | 6 | 321 | 6.4 | 12.9 | 0.00 | 0.00 | 0.00 | 88 | 1013.0 |
| 20260507173608 | 6 | 330 | 6.4 | 14.5 | 0.00 | 0.00 | 0.00 | 88 | 1013.0 |
| 20260507173208 | 6 | 334 | 6.4 | 14.5 | 0.00 | 0.00 | 0.00 | 88 | 1013.0 |
| 20260507173008 | 6 | 335 | 4.8 | 14.5 | 0.00 | 0.00 | 0.00 | 87 | 1013.0 |
| 20260507172807 | 6 | 337 | 6.4 | 17.7 | 0.00 | 0.00 | 0.00 | 87 | 1013.0 |
| 20260507172607 | 6 | 337 | 6.4 | 17.7 | 0.00 | 0.00 | 0.00 | 87 | 1013.0 |
| 20260507172408 | 6 | 337 | 6.4 | 17.7 | 0.00 | 0.00 | 0.00 | 87 | 1013.0 |
| 20260507172209 | 6 | 339 | 4.8 | 17.7 | 0.00 | 0.00 | 0.00 | 87 | 1013.0 |
| 20260507172007 | 6 | 336 | 9.7 | 17.7 | 0.00 | 0.00 | 0.00 | 87 | 1013.0 |
| 20260507171608 | 6 | 334 | 9.7 | 17.7 | 0.00 | 0.00 | 0.00 | 87 | 1013.0 |
| 20260507171408 | 6 | 329 | 9.7 | 17.7 | 0.00 | 0.00 | 0.00 | 87 | 1013.0 |
| 20260507171207 | 6 | 317 | 8.0 | 17.7 | 0.00 | 0.00 | 0.00 | 87 | 1013.0 |
| 20260507171008 | 6 | 312 | 8.0 | 17.7 | 0.00 | 0.00 | 0.00 | 87 | 1013.0 |
| 20260507170808 | 6 | 310 | 8.0 | 17.7 | 0.00 | 0.00 | 0.00 | 87 | 1013.0 |
| 20260507170607 | 6 | 289 | 6.4 | 17.7 | 0.00 | 0.00 | 0.00 | 87 | 1013.0 |
| 20260507170408 | 6 | 285 | 6.4 | 14.5 | 0.00 | 0.00 | 0.00 | 87 | 1013.0 |
| 20260507170207 | 6 | 299 | 4.8 | 14.5 | 0.00 | 0.00 | 0.00 | 87 | 1013.0 |
| 20260507170008 | 6 | 312 | 6.4 | 14.5 | 0.00 | 0.00 | 0.00 | 87 | 1013.0 |
| 20260507165808 | 6 | 316 | 8.0 | 16.1 | 0.00 | 0.00 | 0.00 | 87 | 1013.0 |
| 20260507165608 | 6 | 319 | 8.0 | 16.1 | 0.00 | 0.00 | 0.00 | 87 | 1013.0 |
| 20260507165408 | 6 | 321 | 9.7 | 16.1 | 0.00 | 0.00 | 0.00 | 87 | 1013.0 |
| 20260507165208 | 6 | 311 | 8.0 | 16.1 | 0.00 | 0.00 | 0.00 | 86 | 1013.0 |
| 20260507165009 | 6 | 284 | 11.3 | 16.1 | 0.00 | 0.00 | 0.00 | 86 | 1013.0 |
| 20260507164807 | 6 | 262 | 8.0 | 16.1 | 0.00 | 0.00 | 0.00 | 86 | 1013.0 |
| 20260507164607 | 6 | 262 | 6.4 | 16.1 | 0.00 | 0.00 | 0.00 | 86 | 1013.0 |
| 20260507164408 | 6 | 310 | 8.0 | 17.7 | 0.00 | 0.00 | 0.00 | 86 | 1013.0 |
| 20260507164209 | 6 | 310 | 6.4 | 17.7 | 0.00 | 0.00 | 0.00 | 86 | 1013.0 |
| 20260507164010 | 6 | 319 | 6.4 | 17.7 | 0.00 | 0.00 | 0.00 | 86 | 1013.0 |
| 20260507163607 | 6 | 329 | 11.3 | 17.7 | 0.00 | 0.00 | 0.00 | 86 | 1013.0 |
| 20260507163408 | 6 | 331 | 8.0 | 17.7 | 0.00 | 0.00 | 0.00 | 86 | 1013.0 |
| 20260507163208 | 6 | 354 | 6.4 | 17.7 | 0.00 | 0.00 | 0.00 | 86 | 1013.0 |
| 20260507163007 | 6 | 343 | 4.8 | 17.7 | 0.00 | 0.00 | 0.00 | 86 | 1013.0 |
| 20260507162808 | 6 | 339 | 6.4 | 17.7 | 0.00 | 0.00 | 0.00 | 85 | 1013.0 |
| 20260507162608 | 6 | 333 | 6.4 | 17.7 | 0.00 | 0.00 | 0.00 | 85 | 1013.0 |
| 20260507162408 | 6 | 330 | 8.0 | 17.7 | 0.00 | 0.00 | 0.00 | 85 | 1013.0 |
| 20260507162208 | 6 | 323 | 6.4 | 17.7 | 0.00 | 0.00 | 0.00 | 85 | 1013.0 |
| 20260507162010 | 6 | 326 | 8.0 | 17.7 | 0.00 | 0.00 | 0.00 | 85 | 1013.0 |
| 20260507161608 | 6 | 324 | 9.7 | 17.7 | 0.00 | 0.00 | 0.00 | 85 | 1013.0 |
| 20260507161407 | 6 | 329 | 6.4 | 17.7 | 0.00 | 0.00 | 0.00 | 85 | 1013.0 |
| 20260507161208 | 6 | 331 | 9.7 | 17.7 | 0.00 | 0.00 | 0.00 | 85 | 1013.0 |
| 20260507161008 | 6 | 334 | 8.0 | 17.7 | 0.00 | 0.00 | 0.00 | 85 | 1013.0 |
| 20260507160808 | 6 | 339 | 6.4 | 17.7 | 0.00 | 0.00 | 0.00 | 84 | 1013.0 |
| 20260507160607 | 6 | 340 | 11.3 | 17.7 | 0.00 | 0.00 | 0.00 | 84 | 1013.0 |
| 20260507160408 | 7 | 334 | 9.7 | 17.7 | 0.00 | 0.00 | 0.00 | 84 | 1013.0 |
| 20260507160008 | 7 | 333 | 8.0 | 14.5 | 0.00 | 0.00 | 0.00 | 84 | 1013.0 |
| 20260507155807 | 7 | 344 | 6.4 | 14.5 | 0.00 | 0.00 | 0.00 | 84 | 1013.0 |
| 20260507155608 | 7 | 348 | 4.8 | 14.5 | 0.00 | 0.00 | 0.00 | 84 | 1013.0 |
| 20260507155408 | 7 | 355 | 8.0 | 14.5 | 0.00 | 0.00 | 0.00 | 84 | 1013.0 |
| 20260507155209 | 7 | 359 | 4.8 | 11.3 | 0.00 | 0.00 | 0.00 | 84 | 1013.0 |
| 20260507155007 | 7 | 3 | 4.8 | 11.3 | 0.00 | 0.00 | 0.00 | 84 | 1013.0 |
| 20260507154807 | 7 | 357 | 6.4 | 11.3 | 0.00 | 0.00 | 0.00 | 84 | 1013.0 |
| 20260507154608 | 7 | 354 | 8.0 | 11.3 | 0.00 | 0.00 | 0.00 | 84 | 1013.0 |
| 20260507154208 | 7 | 356 | 4.8 | 16.1 | 0.00 | 0.00 | 0.00 | 83 | 1013.0 |
| 20260507154009 | 7 | 352 | 8.0 | 16.1 | 0.00 | 0.00 | 0.00 | 83 | 1013.0 |
| 20260507153809 | 7 | 353 | 6.4 | 16.1 | 0.00 | 0.00 | 0.00 | 83 | 1013.0 |
| 20260507153607 | 7 | 357 | 6.4 | 16.1 | 0.00 | 0.00 | 0.00 | 83 | 1013.0 |
| 20260507153408 | 7 | 356 | 6.4 | 11.3 | 0.00 | 0.00 | 0.00 | 83 | 1013.0 |
| 20260507153208 | 7 | 353 | 4.8 | 11.3 | 0.00 | 0.00 | 0.00 | 84 | 1013.0 |
| 20260507153008 | 7 | 1 | 6.4 | 11.3 | 0.00 | 0.00 | 0.00 | 84 | 1013.0 |
| 20260507152807 | 7 | 3 | 8.0 | 11.3 | 0.00 | 0.00 | 0.00 | 84 | 1013.0 |
| 20260507152608 | 7 | 4 | 6.4 | 11.3 | 0.00 | 0.00 | 0.00 | 85 | 1013.0 |
| 20260507152409 | 7 | 9 | 4.8 | 11.3 | 0.00 | 0.00 | 0.00 | 85 | 1013.0 |
| 20260507152207 | 7 | 8 | 8.0 | 14.5 | 0.00 | 0.00 | 0.00 | 84 | 1013.0 |
| 20260507152008 | 7 | 3 | 0.0 | 14.5 | 0.00 | 0.00 | 0.00 | 85 | 1013.0 |
| 20260507151808 | 7 | 5 | 8.0 | 16.1 | 0.00 | 0.00 | 0.00 | 85 | 1013.0 |
| 20260507151610 | 6 | 12 | 8.0 | 17.7 | 0.00 | 0.00 | 0.00 | 85 | 1013.0 |
| 20260507151207 | 6 | 12 | 4.8 | 17.7 | 0.00 | 0.00 | 0.00 | 85 | 1013.0 |
| 20260507151008 | 6 | 12 | 9.7 | 17.7 | 0.00 | 0.00 | 0.00 | 84 | 1013.0 |
| 20260507150808 | 6 | 12 | 11.3 | 17.7 | 0.00 | 0.00 | 0.00 | 84 | 1013.0 |
| 20260507150608 | 6 | 7 | 6.4 | 17.7 | 0.00 | 0.00 | 0.00 | 85 | 1013.0 |
| 20260507150407 | 6 | 4 | 6.4 | 17.7 | 0.00 | 0.00 | 0.00 | 85 | 1013.0 |
| 20260507150208 | 6 | 6 | 6.4 | 19.3 | 0.00 | 0.00 | 0.00 | 85 | 1013.0 |
| 20260507150008 | 6 | 8 | 11.3 | 19.3 | 0.00 | 0.00 | 0.00 | 85 | 1013.0 |
| 20260507145808 | 6 | 8 | 9.7 | 19.3 | 0.00 | 0.00 | 0.00 | 85 | 1013.0 |
| 20260507145608 | 6 | 8 | 6.4 | 19.3 | 0.00 | 0.00 | 0.00 | 85 | 1013.0 |
| 20260507145408 | 6 | 5 | 11.3 | 19.3 | 0.00 | 0.00 | 0.00 | 85 | 1013.0 |
| 20260507145208 | 6 | 359 | 8.0 | 14.5 | 0.00 | 0.00 | 0.00 | 85 | 1013.0 |
| 20260507145007 | 7 | 359 | 8.0 | 12.9 | 0.00 | 0.00 | 0.00 | 85 | 1013.0 |
| 20260507144608 | 7 | 358 | 6.4 | 12.9 | 0.00 | 0.00 | 0.00 | 85 | 1013.0 |
| 20260507144410 | 6 | 358 | 6.4 | 12.9 | 0.00 | 0.00 | 0.00 | 85 | 1013.0 |
| 20260507144209 | 6 | 358 | 8.0 | 12.9 | 0.00 | 0.00 | 0.00 | 85 | 1013.0 |
| 20260507143807 | 6 | 355 | 11.3 | 14.5 | 0.00 | 0.00 | 0.00 | 85 | 1013.0 |
| 20260507143608 | 6 | 348 | 6.4 | 14.5 | 0.00 | 0.00 | 0.00 | 85 | 1013.0 |
| 20260507143408 | 7 | 344 | 6.4 | 14.5 | 0.00 | 0.00 | 0.00 | 85 | 1013.0 |
| 20260507143208 | 7 | 354 | 8.0 | 14.5 | 0.00 | 0.00 | 0.00 | 85 | 1013.0 |
| 20260507143008 | 7 | 355 | 0.0 | 12.9 | 0.00 | 0.00 | 0.00 | 85 | 1013.0 |
| 20260507142807 | 7 | 353 | 0.0 | 12.9 | 0.00 | 0.00 | 0.00 | 85 | 1013.0 |
| 20260507142608 | 7 | 353 | 6.4 | 12.9 | 0.00 | 0.00 | 0.00 | 85 | 1013.0 |
| 20260507142408 | 6 | 357 | 8.0 | 14.5 | 0.00 | 0.00 | 0.00 | 85 | 1013.0 |
| 20260507142208 | 6 | 357 | 6.4 | 17.7 | 0.00 | 0.00 | 0.00 | 86 | 1013.0 |
| 20260507142008 | 7 | 359 | 4.8 | 19.3 | 0.00 | 0.00 | 0.00 | 86 | 1013.0 |
| 20260507141608 | 6 | 2 | 11.3 | 19.3 | 0.00 | 0.00 | 0.00 | 86 | 1013.0 |
| 20260507141408 | 6 | 357 | 11.3 | 19.3 | 0.00 | 0.00 | 0.00 | 85 | 1012.0 |
| 20260507141008 | 7 | 2 | 6.4 | 14.5 | 0.00 | 0.00 | 0.00 | 86 | 1012.0 |
| 20260507140408 | 6 | 29 | 6.4 | 16.1 | 0.00 | 0.00 | 0.00 | 85 | 1012.0 |
| 20260507140208 | 6 | 30 | 4.8 | 16.1 | 0.00 | 0.00 | 0.00 | 85 | 1012.0 |
| 20260507140008 | 6 | 28 | 8.0 | 16.1 | 0.00 | 0.00 | 0.00 | 85 | 1012.0 |
| 20260507135809 | 6 | 26 | 8.0 | 16.1 | 0.00 | 0.00 | 0.00 | 85 | 1012.0 |
| 20260507135608 | 6 | 25 | 9.7 | 16.1 | 0.00 | 0.00 | 0.00 | 85 | 1012.0 |
| 20260507135408 | 6 | 22 | 12.9 | 14.5 | 0.00 | 0.00 | 0.00 | 85 | 1012.0 |
| 20260507135207 | 6 | 21 | 9.7 | 12.9 | 0.00 | 0.00 | 0.00 | 85 | 1012.0 |
| 20260507134808 | 7 | 18 | 8.0 | 16.1 | 0.00 | 0.00 | 0.00 | 85 | 1012.0 |
| 20260507134408 | 6 | 13 | 11.3 | 16.1 | 0.00 | 0.00 | 0.00 | 84 | 1012.0 |
| 20260507134008 | 7 | 5 | 9.7 | 16.1 | 0.00 | 0.00 | 0.00 | 84 | 1012.0 |
| 20260507133811 | 7 | 3 | 11.3 | 16.1 | 0.00 | 0.00 | 0.00 | 84 | 1012.0 |
| 20260507133607 | 7 | 354 | 4.8 | 16.1 | 0.00 | 0.00 | 0.00 | 85 | 1012.0 |
| 20260507133408 | 7 | 353 | 6.4 | 16.1 | 0.00 | 0.00 | 0.00 | 85 | 1012.0 |
| 20260507133208 | 7 | 353 | 4.8 | 12.9 | 0.00 | 0.00 | 0.00 | 85 | 1012.0 |
| 20260507132608 | 7 | 349 | 9.7 | 17.7 | 0.00 | 0.00 | 0.00 | 85 | 1012.0 |
| 20260507132408 | 7 | 343 | 8.0 | 17.7 | 0.00 | 0.00 | 0.00 | 85 | 1012.0 |
| 20260507132208 | 6 | 346 | 11.3 | 17.7 | 0.00 | 0.00 | 0.00 | 84 | 1012.0 |
| 20260507132008 | 6 | 343 | 9.7 | 16.1 | 0.00 | 0.00 | 0.00 | 85 | 1012.0 |
| 20260507131808 | 7 | 359 | 8.0 | 12.9 | 0.00 | 0.00 | 0.00 | 85 | 1012.0 |
| 20260507131409 | 7 | 8 | 6.4 | 12.9 | 0.00 | 0.00 | 0.00 | 84 | 1012.0 |
| 20260507131209 | 7 | 11 | 6.4 | 12.9 | 0.00 | 0.00 | 0.00 | 84 | 1012.0 |
| 20260507131008 | 6 | 11 | 8.0 | 14.5 | 0.00 | 0.00 | 0.00 | 84 | 1012.0 |
| 20260507130807 | 7 | 13 | 8.0 | 14.5 | 0.00 | 0.00 | 0.00 | 84 | 1012.0 |
| 20260507130608 | 7 | 18 | 6.4 | 16.1 | 0.00 | 0.00 | 0.00 | 84 | 1012.0 |
| 20260507130408 | 7 | 21 | 8.0 | 16.1 | 0.00 | 0.00 | 0.00 | 84 | 1012.0 |
| 20260507130208 | 7 | 19 | 6.4 | 17.7 | 0.00 | 0.00 | 0.00 | 84 | 1012.0 |
| 20260507130007 | 6 | 21 | 11.3 | 17.7 | 0.00 | 0.00 | 0.00 | 84 | 1012.0 |
| 20260507125808 | 7 | 21 | 11.3 | 17.7 | 0.00 | 0.00 | 0.00 | 84 | 1012.0 |
| 20260507125608 | 6 | 18 | 11.3 | 17.7 | 0.00 | 0.00 | 0.00 | 84 | 1012.0 |
| 20260507125408 | 6 | 15 | 9.7 | 17.7 | 0.00 | 0.00 | 0.00 | 84 | 1012.0 |
| 20260507125208 | 7 | 11 | 9.7 | 17.7 | 0.00 | 0.00 | 0.00 | 84 | 1012.0 |
| 20260507125011 | 6 | 10 | 12.9 | 17.7 | 0.00 | 0.00 | 0.00 | 84 | 1012.0 |
| 20260507124809 | 6 | 7 | 8.0 | 17.7 | 0.00 | 0.00 | 0.00 | 85 | 1012.0 |
| 20260507124608 | 7 | 6 | 8.0 | 17.7 | 0.00 | 0.00 | 0.00 | 85 | 1012.0 |
| 20260507124408 | 6 | 6 | 11.3 | 17.7 | 0.00 | 0.00 | 0.00 | 84 | 1012.0 |
| 20260507124008 | 6 | 5 | 12.9 | 17.7 | 0.00 | 0.00 | 0.00 | 84 | 1012.0 |
| 20260507123609 | 6 | 350 | 9.7 | 16.1 | 0.00 | 0.00 | 0.00 | 85 | 1012.0 |
| 20260507123408 | 6 | 352 | 11.3 | 14.5 | 0.00 | 0.00 | 0.00 | 85 | 1012.0 |
| 20260507123208 | 7 | 351 | 6.4 | 14.5 | 0.00 | 0.00 | 0.00 | 85 | 1012.0 |
| 20260507123009 | 7 | 359 | 8.0 | 14.5 | 0.00 | 0.00 | 0.00 | 85 | 1012.0 |
| 20260507122808 | 7 | 3 | 9.7 | 14.5 | 0.00 | 0.00 | 0.00 | 86 | 1012.0 |
| 20260507122608 | 6 | 9 | 6.4 | 14.5 | 0.00 | 0.00 | 0.00 | 86 | 1012.0 |
| 20260507122408 | 6 | 16 | 8.0 | 16.1 | 0.00 | 0.00 | 0.00 | 86 | 1012.0 |
| 20260507122208 | 6 | 23 | 9.7 | 16.1 | 0.00 | 0.00 | 0.00 | 86 | 1012.0 |
| 20260507122008 | 6 | 28 | 6.4 | 17.7 | 0.00 | 0.00 | 0.00 | 86 | 1012.0 |
| 20260507121808 | 6 | 30 | 11.3 | 17.7 | 0.00 | 0.00 | 0.00 | 86 | 1012.0 |
| 20260507121608 | 6 | 30 | 12.9 | 17.7 | 0.00 | 0.00 | 0.00 | 86 | 1012.0 |
| 20260507121408 | 6 | 26 | 11.3 | 17.7 | 0.00 | 0.00 | 0.00 | 86 | 1012.0 |
| 20260507121209 | 6 | 21 | 14.5 | 17.7 | 0.00 | 0.00 | 0.00 | 86 | 1012.0 |
| 20260507121008 | 7 | 11 | 6.4 | 14.5 | 0.00 | 0.00 | 0.00 | 86 | 1012.0 |
| 20260507120808 | 7 | 12 | 6.4 | 14.5 | 0.00 | 0.00 | 0.00 | 86 | 1012.0 |
| 20260507120608 | 6 | 13 | 9.7 | 14.5 | 0.00 | 0.00 | 0.00 | 85 | 1012.0 |
| 20260507120408 | 6 | 14 | 8.0 | 17.7 | 0.00 | 0.00 | 0.00 | 85 | 1012.0 |
| 20260507120208 | 6 | 12 | 9.7 | 17.7 | 0.00 | 0.00 | 0.00 | 85 | 1012.0 |
| 20260507120008 | 6 | 7 | 11.3 | 17.7 | 0.00 | 0.00 | 0.00 | 84 | 1012.0 |
| 20260507115808 | 6 | 6 | 6.4 | 17.7 | 0.00 | 0.00 | 0.00 | 85 | 1011.0 |
| 20260507115608 | 6 | 4 | 12.9 | 17.7 | 0.00 | 0.00 | 0.00 | 85 | 1011.0 |
| 20260507115409 | 7 | 1 | 8.0 | 17.7 | 0.00 | 0.00 | 0.00 | 85 | 1011.0 |
| 20260507115008 | 6 | 11 | 11.3 | 17.7 | 0.00 | 0.00 | 0.00 | 84 | 1011.0 |
| 20260507114808 | 7 | 4 | 6.4 | 17.7 | 0.00 | 0.00 | 0.00 | 85 | 1011.0 |
| 20260507114608 | 6 | 5 | 11.3 | 17.7 | 0.00 | 0.00 | 0.00 | 84 | 1011.0 |
| 20260507114408 | 6 | 6 | 11.3 | 17.7 | 0.00 | 0.00 | 0.00 | 84 | 1012.0 |
| 20260507114208 | 7 | 355 | 4.8 | 14.5 | 0.00 | 0.00 | 0.00 | 84 | 1012.0 |
| 20260507114009 | 7 | 352 | 8.0 | 14.5 | 0.00 | 0.00 | 0.00 | 84 | 1012.0 |
| 20260507113608 | 7 | 354 | 9.7 | 14.5 | 0.00 | 0.00 | 0.00 | 84 | 1012.0 |
| 20260507113208 | 7 | 356 | 0.0 | 16.1 | 0.00 | 0.00 | 0.00 | 85 | 1012.0 |
| 20260507113008 | 7 | 2 | 6.4 | 16.1 | 0.00 | 0.00 | 0.00 | 85 | 1012.0 |
| 20260507112810 | 7 | 2 | 8.0 | 16.1 | 0.00 | 0.00 | 0.00 | 85 | 1012.0 |
| 20260507112608 | 6 | 5 | 9.7 | 16.1 | 0.00 | 0.00 | 0.00 | 85 | 1012.0 |
| 20260507112408 | 6 | 4 | 11.3 | 16.1 | 0.00 | 0.00 | 0.00 | 85 | 1012.0 |
| 20260507112207 | 6 | 5 | 9.7 | 16.1 | 0.00 | 0.00 | 0.00 | 85 | 1012.0 |
| 20260507112008 | 6 | 2 | 11.3 | 16.1 | 0.00 | 0.00 | 0.00 | 84 | 1012.0 |
| 20260507111808 | 6 | 3 | 8.0 | 14.5 | 0.00 | 0.00 | 0.00 | 85 | 1012.0 |
| 20260507111608 | 6 | 359 | 6.4 | 14.5 | 0.00 | 0.00 | 0.00 | 85 | 1012.0 |
| 20260507111408 | 6 | 355 | 8.0 | 14.5 | 0.00 | 0.00 | 0.00 | 85 | 1011.0 |
| 20260507111208 | 7 | 343 | 0.0 | 11.3 | 0.00 | 0.00 | 0.00 | 85 | 1011.0 |
| 20260507110808 | 6 | 331 | 6.4 | 12.9 | 0.00 | 0.00 | 0.00 | 85 | 1011.0 |
| 20260507110608 | 6 | 336 | 6.4 | 19.3 | 0.00 | 0.00 | 0.00 | 85 | 1011.0 |
| 20260507110408 | 6 | 338 | 6.4 | 19.3 | 0.00 | 0.00 | 0.00 | 85 | 1011.0 |
| 20260507110008 | 6 | 352 | 8.0 | 19.3 | 0.00 | 0.00 | 0.00 | 85 | 1011.0 |
| 20260507105807 | 6 | 345 | 11.3 | 19.3 | 0.00 | 0.00 | 0.00 | 85 | 1011.0 |
| 20260507105408 | 6 | 3 | 0.0 | 12.9 | 0.00 | 0.00 | 0.00 | 85 | 1011.0 |
| 20260507105208 | 6 | 2 | 6.4 | 12.9 | 0.00 | 0.00 | 0.00 | 85 | 1011.0 |
| 20260507104808 | 6 | 16 | 8.0 | 11.3 | 0.00 | 0.00 | 0.00 | 84 | 1011.0 |
| 20260507104608 | 6 | 14 | 6.4 | 9.7 | 0.00 | 0.00 | 0.00 | 85 | 1011.0 |
| 20260507104408 | 7 | 4 | 0.0 | 11.3 | 0.00 | 0.00 | 0.00 | 85 | 1011.0 |
| 20260507104208 | 6 | 352 | 4.8 | 11.3 | 0.00 | 0.00 | 0.00 | 84 | 1011.0 |
| 20260507103808 | 6 | 332 | 6.4 | 11.3 | 0.00 | 0.00 | 0.00 | 85 | 1011.0 |
| 20260507103608 | 7 | 336 | 8.0 | 12.9 | 0.00 | 0.00 | 0.00 | 85 | 1011.0 |
| 20260507103408 | 7 | 341 | 6.4 | 12.9 | 0.00 | 0.00 | 0.00 | 85 | 1011.0 |
| 20260507103208 | 7 | 347 | 6.4 | 12.9 | 0.00 | 0.00 | 0.00 | 85 | 1011.0 |
| 20260507103008 | 6 | 348 | 8.0 | 14.5 | 0.00 | 0.00 | 0.00 | 85 | 1011.0 |
| 20260507102808 | 6 | 346 | 4.8 | 14.5 | 0.00 | 0.00 | 0.00 | 85 | 1011.0 |
| 20260507102410 | 6 | 332 | 6.4 | 14.5 | 0.00 | 0.00 | 0.00 | 85 | 1011.0 |
| 20260507102208 | 6 | 329 | 8.0 | 14.5 | 0.00 | 0.00 | 0.00 | 86 | 1011.0 |
| 20260507102007 | 6 | 329 | 8.0 | 16.1 | 0.00 | 0.00 | 0.00 | 86 | 1011.0 |
| 20260507101808 | 6 | 326 | 6.4 | 16.1 | 0.00 | 0.00 | 0.00 | 85 | 1011.0 |
| 20260507101407 | 6 | 328 | 8.0 | 16.1 | 0.00 | 0.00 | 0.00 | 86 | 1011.0 |
| 20260507101208 | 6 | 339 | 8.0 | 16.1 | 0.00 | 0.00 | 0.00 | 85 | 1011.0 |
| 20260507101009 | 6 | 345 | 8.0 | 11.3 | 0.00 | 0.00 | 0.00 | 85 | 1011.0 |
| 20260507100607 | 6 | 345 | 6.4 | 14.5 | 0.00 | 0.00 | 0.00 | 85 | 1011.0 |
| 20260507100409 | 6 | 354 | 6.4 | 14.5 | 0.00 | 0.00 | 0.00 | 85 | 1011.0 |
| 20260507100208 | 6 | 352 | 4.8 | 14.5 | 0.00 | 0.00 | 0.00 | 86 | 1011.0 |
| 20260507100009 | 6 | 350 | 6.4 | 14.5 | 0.00 | 0.00 | 0.00 | 86 | 1011.0 |
| 20260507095608 | 6 | 349 | 11.3 | 14.5 | 0.00 | 0.00 | 0.00 | 86 | 1011.0 |
| 20260507095409 | 6 | 345 | 8.0 | 12.9 | 0.00 | 0.00 | 0.00 | 86 | 1011.0 |
| 20260507095208 | 6 | 336 | 6.4 | 12.9 | 0.00 | 0.00 | 0.00 | 85 | 1011.0 |
| 20260507095008 | 6 | 344 | 8.0 | 14.5 | 0.00 | 0.00 | 0.00 | 85 | 1011.0 |
| 20260507094808 | 6 | 342 | 6.4 | 14.5 | 0.00 | 0.00 | 0.00 | 85 | 1011.0 |
| 20260507094608 | 6 | 350 | 6.4 | 14.5 | 0.00 | 0.00 | 0.00 | 85 | 1011.0 |
| 20260507094408 | 6 | 349 | 8.0 | 14.5 | 0.00 | 0.00 | 0.00 | 84 | 1011.0 |
| 20260507094210 | 6 | 358 | 6.4 | 14.5 | 0.00 | 0.00 | 0.00 | 84 | 1011.0 |
| 20260507094009 | 6 | 350 | 6.4 | 11.3 | 0.00 | 0.00 | 0.00 | 84 | 1011.0 |
| 20260507093808 | 6 | 347 | 4.8 | 11.3 | 0.00 | 0.00 | 0.00 | 85 | 1011.0 |
| 20260507093608 | 7 | 325 | 0.0 | 9.7 | 0.00 | 0.00 | 0.00 | 85 | 1011.0 |
| 20260507093408 | 7 | 346 | 4.8 | 12.9 | 0.00 | 0.00 | 0.00 | 85 | 1011.0 |
| 20260507093209 | 7 | 351 | 0.0 | 12.9 | 0.00 | 0.00 | 0.00 | 85 | 1011.0 |
| 20260507093008 | 7 | 348 | 0.0 | 12.9 | 0.00 | 0.00 | 0.00 | 85 | 1011.0 |
| 20260507092808 | 6 | 349 | 6.4 | 14.5 | 0.00 | 0.00 | 0.00 | 85 | 1010.0 |
| 20260507092608 | 6 | 345 | 8.0 | 14.5 | 0.00 | 0.00 | 0.00 | 84 | 1010.0 |
| 20260507092408 | 7 | 343 | 6.4 | 14.5 | 0.00 | 0.00 | 0.00 | 85 | 1010.0 |
| 20260507092209 | 7 | 325 | 6.4 | 14.5 | 0.00 | 0.00 | 0.00 | 85 | 1010.0 |
| 20260507091808 | 7 | 334 | 0.0 | 14.5 | 0.00 | 0.00 | 0.00 | 86 | 1010.0 |
| 20260507091608 | 6 | 343 | 6.4 | 14.5 | 0.00 | 0.00 | 0.00 | 86 | 1010.0 |
| 20260507091208 | 6 | 358 | 8.0 | 12.9 | 0.00 | 0.00 | 0.00 | 86 | 1010.0 |
| 20260507090808 | 6 | 359 | 4.8 | 16.1 | 0.00 | 0.00 | 0.00 | 87 | 1010.0 |
| 20260507090609 | 6 | 4 | 8.0 | 16.1 | 0.00 | 0.00 | 0.00 | 87 | 1010.0 |
| 20260507090409 | 6 | 356 | 8.0 | 16.1 | 0.00 | 0.00 | 0.00 | 87 | 1010.0 |
| 20260507090208 | 6 | 357 | 6.4 | 16.1 | 0.00 | 0.00 | 0.00 | 87 | 1010.0 |
| 20260507090008 | 6 | 359 | 9.7 | 16.1 | 0.00 | 0.00 | 0.00 | 87 | 1010.0 |
| 20260507085808 | 5 | 359 | 8.0 | 11.3 | 0.00 | 0.00 | 0.00 | 87 | 1010.0 |
| 20260507085608 | 6 | 358 | 6.4 | 11.3 | 0.00 | 0.00 | 0.00 | 87 | 1010.0 |
| 20260507085408 | 6 | 359 | 6.4 | 11.3 | 0.00 | 0.00 | 0.00 | 87 | 1010.0 |
| 20260507085208 | 6 | 356 | 4.8 | 11.3 | 0.00 | 0.00 | 0.00 | 87 | 1010.0 |
| 20260507085009 | 6 | 355 | 6.4 | 11.3 | 0.00 | 0.00 | 0.00 | 87 | 1010.0 |
| 20260507084617 | 5 | 353 | 6.4 | 12.9 | 0.00 | 0.00 | 0.00 | 87 | 1010.0 |
| 20260507084408 | 5 | 353 | 6.4 | 14.5 | 0.00 | 0.00 | 0.00 | 87 | 1010.0 |
| 20260507084208 | 5 | 353 | 6.4 | 14.5 | 0.00 | 0.00 | 0.00 | 87 | 1010.0 |
| 20260507084008 | 5 | 354 | 9.7 | 14.5 | 0.00 | 0.00 | 0.00 | 87 | 1010.0 |
| 20260507083808 | 5 | 356 | 4.8 | 14.5 | 0.00 | 0.00 | 0.00 | 87 | 1010.0 |
| 20260507083409 | 6 | 356 | 6.4 | 12.9 | 0.00 | 0.00 | 0.00 | 88 | 1010.0 |
| 20260507083209 | 5 | 2 | 6.4 | 12.9 | 0.00 | 0.00 | 0.00 | 88 | 1010.0 |
| 20260507083009 | 5 | 3 | 9.7 | 12.9 | 0.00 | 0.00 | 0.00 | 88 | 1010.0 |
| 20260507082608 | 5 | 2 | 9.7 | 14.5 | 0.00 | 0.00 | 0.00 | 88 | 1010.0 |
| 20260507082408 | 5 | 2 | 6.4 | 14.5 | 0.00 | 0.00 | 0.00 | 88 | 1010.0 |
| 20260507082208 | 5 | 1 | 9.7 | 14.5 | 0.00 | 0.00 | 0.00 | 88 | 1010.0 |
| 20260507082008 | 5 | 2 | 8.0 | 14.5 | 0.00 | 0.00 | 0.00 | 88 | 1010.0 |
| 20260507081808 | 5 | 2 | 11.3 | 14.5 | 0.00 | 0.00 | 0.00 | 88 | 1010.0 |
| 20260507081608 | 5 | 359 | 8.0 | 14.5 | 0.00 | 0.00 | 0.00 | 88 | 1010.0 |
| 20260507081408 | 5 | 1 | 11.3 | 14.5 | 0.00 | 0.00 | 0.00 | 88 | 1010.0 |
| 20260507081208 | 5 | 355 | 6.4 | 11.3 | 0.00 | 0.00 | 0.00 | 88 | 1010.0 |
| 20260507081008 | 5 | 349 | 6.4 | 11.3 | 0.00 | 0.00 | 0.00 | 88 | 1010.0 |
| 20260507080807 | 5 | 341 | 9.7 | 14.5 | 0.00 | 0.00 | 0.00 | 88 | 1010.0 |
| 20260507080608 | 5 | 339 | 6.4 | 16.1 | 0.00 | 0.00 | 0.00 | 88 | 1010.0 |
| 20260507080408 | 5 | 336 | 0.0 | 16.1 | 0.00 | 0.00 | 0.00 | 88 | 1010.0 |
| 20260507080209 | 5 | 343 | 6.4 | 16.1 | 0.00 | 0.00 | 0.00 | 88 | 1010.0 |
| 20260507080008 | 5 | 340 | 9.7 | 16.1 | 0.00 | 0.00 | 0.00 | 88 | 1010.0 |
| 20260507075810 | 5 | 343 | 6.4 | 16.1 | 0.00 | 0.00 | 0.00 | 88 | 1009.0 |
| 20260507075408 | 5 | 343 | 11.3 | 16.1 | 0.00 | 0.00 | 0.00 | 88 | 1009.0 |
| 20260507075208 | 5 | 341 | 4.8 | 14.5 | 0.00 | 0.00 | 0.00 | 88 | 1009.0 |
| 20260507075008 | 5 | 349 | 8.0 | 14.5 | 0.00 | 0.00 | 0.00 | 88 | 1009.0 |
| 20260507074808 | 5 | 347 | 6.4 | 14.5 | 0.00 | 0.00 | 0.00 | 88 | 1009.0 |
| 20260507074609 | 5 | 352 | 6.4 | 14.5 | 0.00 | 0.00 | 0.00 | 88 | 1009.0 |
| 20260507074408 | 5 | 350 | 8.0 | 14.5 | 0.00 | 0.00 | 0.00 | 88 | 1009.0 |
| 20260507074208 | 5 | 348 | 4.8 | 14.5 | 0.00 | 0.00 | 0.00 | 89 | 1009.0 |
| 20260507074008 | 5 | 348 | 4.8 | 16.1 | 0.00 | 0.00 | 0.00 | 89 | 1009.0 |
| 20260507073809 | 5 | 353 | 6.4 | 17.7 | 0.00 | 0.00 | 0.00 | 89 | 1009.0 |
| 20260507073608 | 5 | 349 | 8.0 | 17.7 | 0.00 | 0.00 | 0.00 | 88 | 1009.0 |
| 20260507073208 | 5 | 349 | 11.3 | 17.7 | 0.00 | 0.00 | 0.00 | 89 | 1009.0 |
| 20260507073008 | 5 | 347 | 11.3 | 17.7 | 0.00 | 0.00 | 0.00 | 89 | 1009.0 |
| 20260507072808 | 5 | 342 | 9.7 | 16.1 | 0.00 | 0.00 | 0.00 | 89 | 1009.0 |
| 20260507072608 | 5 | 340 | 9.7 | 12.9 | 0.00 | 0.00 | 0.00 | 89 | 1009.0 |
| 20260507072407 | 5 | 341 | 6.4 | 17.7 | 0.00 | 0.00 | 0.00 | 89 | 1009.0 |
| 20260507072208 | 5 | 345 | 8.0 | 17.7 | 0.00 | 0.00 | 0.00 | 89 | 1009.0 |
| 20260507071808 | 5 | 356 | 6.4 | 17.7 | 0.00 | 0.00 | 0.00 | 89 | 1009.0 |
| 20260507071408 | 5 | 9 | 9.7 | 16.1 | 0.00 | 0.00 | 0.00 | 89 | 1009.0 |
| 20260507071209 | 5 | 6 | 9.7 | 16.1 | 0.00 | 0.00 | 0.00 | 89 | 1009.0 |
| 20260507071008 | 5 | 5 | 4.8 | 14.5 | 0.00 | 0.00 | 0.00 | 89 | 1009.0 |
| 20260507070809 | 5 | 358 | 6.4 | 14.5 | 0.00 | 0.00 | 0.00 | 89 | 1009.0 |
| 20260507070609 | 5 | 359 | 4.8 | 16.1 | 0.00 | 0.00 | 0.00 | 89 | 1009.0 |
| 20260507070408 | 5 | 359 | 11.3 | 16.1 | 0.00 | 0.00 | 0.00 | 89 | 1009.0 |
| 20260507070209 | 5 | 356 | 11.3 | 16.1 | 0.00 | 0.00 | 0.00 | 89 | 1009.0 |
| 20260507070011 | 5 | 351 | 8.0 | 16.1 | 0.00 | 0.00 | 0.00 | 89 | 1009.0 |
| 20260507065808 | 5 | 346 | 9.7 | 16.1 | 0.00 | 0.00 | 0.00 | 89 | 1009.0 |
| 20260507065609 | 5 | 358 | 6.4 | 12.9 | 0.00 | 0.00 | 0.00 | 89 | 1009.0 |
| 20260507065408 | 5 | 1 | 6.4 | 12.9 | 0.00 | 0.00 | 0.00 | 89 | 1009.0 |
| 20260507065209 | 5 | 6 | 6.4 | 14.5 | 0.00 | 0.00 | 0.00 | 89 | 1009.0 |
| 20260507065008 | 5 | 9 | 6.4 | 14.5 | 0.00 | 0.00 | 0.00 | 89 | 1009.0 |
| 20260507064808 | 5 | 13 | 11.3 | 14.5 | 0.00 | 0.00 | 0.00 | 90 | 1009.0 |
| 20260507064409 | 5 | 7 | 11.3 | 16.1 | 0.00 | 0.00 | 0.00 | 90 | 1009.0 |
| 20260507064208 | 5 | 1 | 6.4 | 16.1 | 0.00 | 0.00 | 0.00 | 89 | 1009.0 |
| 20260507064008 | 5 | 5 | 9.7 | 19.3 | 0.00 | 0.00 | 0.00 | 90 | 1009.0 |
| 20260507063809 | 5 | 4 | 11.3 | 19.3 | 0.00 | 0.00 | 0.00 | 90 | 1009.0 |
| 20260507063608 | 5 | 357 | 8.0 | 19.3 | 0.00 | 0.00 | 0.00 | 90 | 1009.0 |
| 20260507063409 | 5 | 359 | 6.4 | 19.3 | 0.00 | 0.00 | 0.00 | 90 | 1009.0 |
| 20260507063008 | 5 | 10 | 4.8 | 17.7 | 0.00 | 0.00 | 0.00 | 90 | 1009.0 |
| 20260507062808 | 5 | 13 | 11.3 | 17.7 | 0.00 | 0.00 | 0.00 | 90 | 1009.0 |
| 20260507062609 | 5 | 17 | 9.7 | 17.7 | 0.00 | 0.00 | 0.00 | 90 | 1009.0 |
| 20260507062408 | 5 | 20 | 9.7 | 17.7 | 0.00 | 0.00 | 0.00 | 90 | 1009.0 |
| 20260507062208 | 5 | 20 | 12.9 | 17.7 | 0.00 | 0.00 | 0.00 | 90 | 1009.0 |
| 20260507062009 | 5 | 20 | 12.9 | 17.7 | 0.00 | 0.00 | 0.00 | 90 | 1009.0 |
| 20260507061808 | 5 | 23 | 8.0 | 17.7 | 0.00 | 0.00 | 0.00 | 90 | 1009.0 |
| 20260507061608 | 5 | 24 | 12.9 | 17.7 | 0.00 | 0.00 | 0.00 | 90 | 1009.0 |
| 20260507061408 | 5 | 23 | 9.7 | 17.7 | 0.00 | 0.00 | 0.00 | 90 | 1008.0 |
| 20260507061208 | 5 | 23 | 11.3 | 17.7 | 0.00 | 0.00 | 0.00 | 90 | 1008.0 |
| 20260507061009 | 5 | 19 | 4.8 | 17.7 | 0.00 | 0.00 | 0.00 | 90 | 1008.0 |
| 20260507060808 | 5 | 6 | 0.0 | 17.7 | 0.00 | 0.00 | 0.00 | 90 | 1008.0 |
| 20260507060408 | 5 | 354 | 8.0 | 17.7 | 0.00 | 0.00 | 0.00 | 90 | 1008.0 |
| 20260507060209 | 5 | 343 | 4.8 | 16.1 | 0.00 | 0.00 | 0.00 | 90 | 1008.0 |
| 20260507055809 | 5 | 348 | 9.7 | 19.3 | 0.00 | 0.00 | 0.00 | 90 | 1008.0 |
| 20260507055608 | 5 | 345 | 9.7 | 19.3 | 0.00 | 0.00 | 0.00 | 90 | 1008.0 |
| 20260507055411 | 5 | 350 | 11.3 | 19.3 | 0.00 | 0.00 | 0.00 | 90 | 1008.0 |
| 20260507055208 | 5 | 352 | 6.4 | 20.9 | 0.00 | 0.00 | 0.00 | 91 | 1008.0 |
| 20260507055008 | 5 | 356 | 4.8 | 20.9 | 0.00 | 0.00 | 0.00 | 91 | 1008.0 |
| 20260507054808 | 5 | 356 | 11.3 | 20.9 | 0.00 | 0.00 | 0.00 | 91 | 1008.0 |
| 20260507054608 | 5 | 356 | 11.3 | 20.9 | 0.00 | 0.00 | 0.00 | 91 | 1008.0 |
| 20260507054408 | 5 | 354 | 11.3 | 20.9 | 0.00 | 0.00 | 0.00 | 91 | 1008.0 |
| 20260507054008 | 5 | 355 | 9.7 | 20.9 | 0.00 | 0.00 | 0.00 | 91 | 1008.0 |
| 20260507053609 | 5 | 358 | 14.5 | 20.9 | 0.00 | 0.00 | 0.00 | 91 | 1008.0 |
| 20260507053208 | 5 | 357 | 11.3 | 19.3 | 0.00 | 0.00 | 0.00 | 91 | 1008.0 |
| 20260507052808 | 5 | 348 | 12.9 | 17.7 | 0.00 | 0.00 | 0.00 | 91 | 1008.0 |
| 20260507052608 | 5 | 352 | 8.0 | 20.9 | 0.00 | 0.00 | 0.00 | 91 | 1008.0 |
| 20260507052408 | 5 | 344 | 8.0 | 20.9 | 0.00 | 0.00 | 0.00 | 91 | 1008.0 |
| 20260507052209 | 5 | 336 | 11.3 | 20.9 | 0.00 | 0.00 | 0.00 | 91 | 1008.0 |
| 20260507052009 | 5 | 333 | 12.9 | 20.9 | 0.00 | 0.00 | 0.00 | 91 | 1008.0 |
| 20260507051808 | 5 | 335 | 9.7 | 20.9 | 0.00 | 0.00 | 0.00 | 91 | 1008.0 |
| 20260507051610 | 5 | 328 | 14.5 | 20.9 | 0.00 | 0.00 | 0.00 | 91 | 1008.0 |
| 20260507051208 | 5 | 336 | 9.7 | 17.7 | 0.00 | 0.00 | 0.00 | 91 | 1008.0 |
| 20260507051008 | 5 | 349 | 9.7 | 17.7 | 0.00 | 0.00 | 0.00 | 91 | 1008.0 |
| 20260507050808 | 5 | 350 | 9.7 | 17.7 | 0.00 | 0.00 | 0.00 | 91 | 1008.0 |
| 20260507050608 | 5 | 350 | 6.4 | 16.1 | 0.00 | 0.00 | 0.00 | 91 | 1008.0 |
| 20260507050208 | 5 | 355 | 12.9 | 17.7 | 0.00 | 0.00 | 0.00 | 90 | 1008.0 |
| 20260507050010 | 5 | 353 | 6.4 | 17.7 | 0.00 | 0.00 | 0.00 | 90 | 1008.0 |
| 20260507045808 | 5 | 358 | 8.0 | 17.7 | 0.00 | 0.00 | 0.00 | 90 | 1008.0 |
| 20260507045609 | 5 | 358 | 9.7 | 17.7 | 0.00 | 0.00 | 0.00 | 90 | 1008.0 |
| 20260507045408 | 5 | 342 | 11.3 | 17.7 | 0.00 | 0.00 | 0.00 | 90 | 1008.0 |
| 20260507045210 | 5 | 349 | 4.8 | 16.1 | 0.00 | 0.00 | 0.00 | 90 | 1008.0 |
| 20260507045010 | 5 | 350 | 4.8 | 16.1 | 0.00 | 0.00 | 0.00 | 90 | 1008.0 |
| 20260507044808 | 5 | 345 | 9.7 | 16.1 | 0.00 | 0.00 | 0.00 | 90 | 1008.0 |
| 20260507044608 | 5 | 344 | 11.3 | 16.1 | 0.00 | 0.00 | 0.00 | 90 | 1008.0 |
| 20260507044408 | 5 | 2 | 6.4 | 16.1 | 0.00 | 0.00 | 0.00 | 90 | 1007.0 |
| 20260507044208 | 5 | 343 | 6.4 | 16.1 | 0.00 | 0.00 | 0.00 | 90 | 1007.0 |
| 20260507044008 | 5 | 345 | 6.4 | 20.9 | 0.00 | 0.00 | 0.00 | 90 | 1007.0 |
| 20260507043808 | 5 | 343 | 4.8 | 20.9 | 0.00 | 0.00 | 0.00 | 90 | 1007.0 |
| 20260507043608 | 5 | 339 | 8.0 | 20.9 | 0.00 | 0.00 | 0.00 | 90 | 1007.0 |
| 20260507043209 | 5 | 347 | 11.3 | 20.9 | 0.00 | 0.00 | 0.00 | 90 | 1007.0 |
| 20260507043009 | 5 | 343 | 9.7 | 17.7 | 0.00 | 0.00 | 0.00 | 90 | 1007.0 |
| 20260507042808 | 5 | 354 | 6.4 | 17.7 | 0.00 | 0.00 | 0.00 | 90 | 1007.0 |
| 20260507042608 | 5 | 10 | 8.0 | 16.1 | 0.00 | 0.00 | 0.00 | 90 | 1007.0 |
| 20260507042409 | 5 | 6 | 8.0 | 17.7 | 0.00 | 0.00 | 0.00 | 90 | 1007.0 |
| 20260507042208 | 5 | 356 | 11.3 | 17.7 | 0.00 | 0.00 | 0.00 | 90 | 1007.0 |
| 20260507042009 | 5 | 1 | 8.0 | 20.9 | 0.00 | 0.00 | 0.00 | 90 | 1007.0 |
| 20260507041808 | 5 | 357 | 4.8 | 20.9 | 0.00 | 0.00 | 0.00 | 90 | 1007.0 |
| 20260507041608 | 5 | 352 | 11.3 | 20.9 | 0.00 | 0.00 | 0.00 | 90 | 1007.0 |
| 20260507041408 | 5 | 352 | 9.7 | 20.9 | 0.00 | 0.00 | 0.00 | 90 | 1007.0 |
| 20260507041208 | 5 | 345 | 9.7 | 20.9 | 0.00 | 0.00 | 0.00 | 89 | 1007.0 |
| 20260507041009 | 5 | 335 | 8.0 | 17.7 | 0.00 | 0.00 | 0.00 | 89 | 1007.0 |
| 20260507040809 | 5 | 332 | 8.0 | 20.9 | 0.00 | 0.00 | 0.00 | 89 | 1007.0 |
| 20260507040608 | 5 | 336 | 6.4 | 20.9 | 0.00 | 0.00 | 0.00 | 89 | 1007.0 |
| 20260507040208 | 5 | 339 | 11.3 | 20.9 | 0.00 | 0.00 | 0.00 | 89 | 1007.0 |
| 20260507040008 | 5 | 337 | 11.3 | 20.9 | 0.00 | 0.00 | 0.00 | 89 | 1007.0 |
| 20260507035809 | 5 | 341 | 9.7 | 19.3 | 0.00 | 0.00 | 0.00 | 89 | 1007.0 |
| 20260507035608 | 5 | 339 | 11.3 | 19.3 | 0.00 | 0.00 | 0.00 | 89 | 1007.0 |
| 20260507035208 | 5 | 336 | 4.8 | 19.3 | 0.00 | 0.00 | 0.00 | 89 | 1007.0 |
| 20260507035009 | 5 | 334 | 9.7 | 19.3 | 0.00 | 0.00 | 0.00 | 89 | 1007.0 |
| 20260507034808 | 5 | 319 | 9.7 | 19.3 | 0.00 | 0.00 | 0.00 | 89 | 1007.0 |
| 20260507034408 | 5 | 317 | 6.4 | 17.7 | 0.00 | 0.00 | 0.00 | 89 | 1007.0 |
| 20260507034009 | 5 | 328 | 9.7 | 17.7 | 0.00 | 0.00 | 0.00 | 89 | 1007.0 |
| 20260507033808 | 5 | 331 | 9.7 | 17.7 | 0.00 | 0.00 | 0.00 | 88 | 1007.0 |
| 20260507033609 | 6 | 325 | 6.4 | 19.3 | 0.00 | 0.00 | 0.00 | 88 | 1007.0 |
| 20260507033208 | 6 | 323 | 9.7 | 19.3 | 0.00 | 0.00 | 0.00 | 88 | 1007.0 |
| 20260507033009 | 6 | 324 | 11.3 | 19.3 | 0.00 | 0.00 | 0.00 | 88 | 1007.0 |
| 20260507032808 | 6 | 316 | 9.7 | 19.3 | 0.00 | 0.00 | 0.00 | 88 | 1007.0 |
| 20260507032608 | 6 | 319 | 6.4 | 17.7 | 0.00 | 0.00 | 0.00 | 88 | 1007.0 |
| 20260507032410 | 6 | 334 | 6.4 | 17.7 | 0.00 | 0.00 | 0.00 | 88 | 1007.0 |
| 20260507032008 | 6 | 326 | 6.4 | 19.3 | 0.00 | 0.00 | 0.00 | 88 | 1007.0 |
| 20260507031808 | 6 | 326 | 9.7 | 19.3 | 0.00 | 0.00 | 0.00 | 88 | 1007.0 |
| 20260507031609 | 6 | 318 | 6.4 | 19.3 | 0.00 | 0.00 | 0.00 | 88 | 1007.0 |
| 20260507031408 | 6 | 319 | 8.0 | 19.3 | 0.00 | 0.00 | 0.00 | 88 | 1007.0 |
| 20260507031208 | 6 | 316 | 8.0 | 14.5 | 0.00 | 0.00 | 0.00 | 87 | 1007.0 |
| 20260507031008 | 6 | 309 | 6.4 | 14.5 | 0.00 | 0.00 | 0.00 | 87 | 1007.0 |
| 20260507030808 | 6 | 326 | 6.4 | 14.5 | 0.00 | 0.00 | 0.00 | 87 | 1007.0 |
| 20260507030608 | 6 | 328 | 8.0 | 14.5 | 0.00 | 0.00 | 0.00 | 87 | 1007.0 |
| 20260507030009 | 6 | 337 | 8.0 | 12.9 | 0.00 | 0.00 | 0.00 | 87 | 1007.0 |
| 20260507025808 | 6 | 334 | 6.4 | 12.9 | 0.00 | 0.00 | 0.00 | 87 | 1007.0 |
| 20260507025608 | 6 | 335 | 0.0 | 12.9 | 0.00 | 0.00 | 0.00 | 87 | 1007.0 |
| 20260507025409 | 6 | 336 | 9.7 | 17.7 | 0.00 | 0.00 | 0.00 | 87 | 1007.0 |
| 20260507025008 | 6 | 332 | 6.4 | 17.7 | 0.00 | 0.00 | 0.00 | 87 | 1007.0 |
| 20260507024610 | 6 | 336 | 11.3 | 17.7 | 0.00 | 0.00 | 0.00 | 86 | 1007.0 |
| 20260507024408 | 6 | 337 | 4.8 | 16.1 | 0.00 | 0.00 | 0.00 | 86 | 1007.0 |